SL-14 DEB, 45301

Orbit data source: Space-Track

SL-14 DEB, 45301 is space debris in LEO originally from a launch on Thu, 15 Aug 1991 UTC launched from the Plesetsk Missile And Space Complex (PKMTR). Debris objects in space refer to the collection of defunct objects orbiting the Earth. Examples of debris include non-operational satellites, rocket bodies, and fragments generated from explosions, collisions, or faulty payload assembly.

Loading next visibility...
Identifier
45301, 1991-056AP
Orbit
LEO
Country
Flag of CISCIS
Related business
Manufacturer
Unknown
Mission
Spacecraft
Bus & Motor
Unknown
Mass
Unknown
Launch date (UTC)
1991-08-15 (34 years ago)
Launch vehicle
Unknown
Launch site
Plesetsk Missile And Space Complex (PKMTR)
Object type
Payload
Rocket body
Debris
Shape & HBR
Unknown shape, 0.6 m
Radar Cross Section
Medium (>0.1 m² and <1 m²)

Expand to show TLE details & history
Last TLE update: 7 hours ago

TLE from 7 hours ago
0 SL-14 DEB
1 45301U 91056AP  25346.99153096  .00005039  00000-0  60197-2 0  9998
2 45301  82.4948 164.3114 0174201 186.7119 173.1696 13.60754022287615
Epoch: 2025-12-12T23:47Z
TLE epoch observation values (Epoch: 2025-12-12T23:47:48.274Z)
Latitude
-0.00001°
Longitude
85.43505°
Altitude
1,164.063 km
Speed
7.208 km/s
True Right ascension
10h 57m 14s
True Declination
0° 00' 00"
Sunlit
Object was in daylight at epoch
Visualization orbit readout
Latitude
Unknown
Longitude
Unknown
Altitude
Unknown
Speed
Unknown
Apparent Right ascension
Unknown
Apparent Declination
Unknown
Sunlit
N/A
Visualization observer readout
Local Sidereal Time
05:23:36
Azimuth
Unknown
Elevation
Unknown
Doppler factor
Unknown
Orbital elements
Apogee altitude
1,159.191 km
Perigee altitude
901.085 km
Semi-major axis
7,408.275 km
Eccentricity
0.01742
Inclination
82.4948°
RAAN
164.3114°
Arg. of periapsis
186.7119°
True anomaly
173.40198°
Mean anomaly
173.1696°
Eccentric anomaly
173.28629°
Mean motion
3.40383 °/min
Orbital period
105.76 mins
BSTAR
0.0060197
Loading maneuver chart data...
Computing Atmospheric mass density...
Loading historical data...
Loading historical data...
Loading historical data...
Loading historical data...
Loading historical data...
Loading historical data...
Loading historical data...

Documentation

Showing up to 5 results
|